Regional Weather Roundup
Issued by NWS Northern Indiana

Home | Current Version | Previous Version | Graphics & Text | Print | Product List | Glossary On
Versions: 1 2 3 4 5 6 7 8 9 10 11 12 13 14 15 16 17 18 19 20 21 22 23 24 25 26 27 28 29 30 31 32 33 34 35 36 37 38 39 40 41 42 43 44 45 46 47 48 49 50
386
ASUS43 KIWX 210010
RWRIWX

KIWX WEATHER ROUNDUP
NATIONAL WEATHER SERVICE NORTHERN INDIANA
700 PM EST MON NOV 20 2017

NOTE: "FAIR" INDICATES FEW OR NO CLOUDS BELOW 12,000 FEET WITH NO
SIGNIFICANT WEATHER AND/OR OBSTRUCTIONS TO VISIBILITY.

* THESE STATIONS ARE NOT UNDER NWS QUALITY CONTROL. THEY ALSO MAY NOT
  REPORT WEATHER SUCH AS PRECIPITATION OR FOG.

INZ001>027-210100-
NORTHERN INDIANA

CITY           SKY/WX    TMP DP  RH WIND       PRES   REMARKS
GARY*          PTCLDY    48  30  49 S16G32    29.79F
VALPARAISO     CLEAR     46  32  58 S13G24    29.83F
6HR MIN TEMP:  46; 6HR MAX TEMP:  53;

MICHIGAN CITY* CLEAR     45  32  61 S17G28    29.80F
LAPORTE*       CLEAR     44  32  62 S17G24    29.82F
6HR MIN TEMP:  44; 6HR MAX TEMP:  50;

KNOX*          CLEAR     45  32  61 S20       29.85S
SOUTH BEND     CLEAR     45  30  55 S16       29.83F
6HR MIN TEMP:  45; 6HR MAX TEMP:  50;

ELKHART*       CLEAR     45  28  53 SW12G17   29.83F
GOSHEN         CLEAR     44  26  49 S18       29.85S
6HR MIN TEMP:  44; 6HR MAX TEMP:  49;

MONTICELLO*    CLEAR     44  28  54 S13G20    29.88F
6HR MIN TEMP:  44; 6HR MAX TEMP:  51;

LOGANSPORT*    CLEAR     39  30  70 S14       29.91F
ROCHESTER*     CLEAR     45  30  57 S15       29.89S
WARSAW*        CLEAR     45  27  49 S13G18    29.87F
AUBURN*        CLEAR     43  28  56 S10G21    29.91R
FORT WAYNE     PTCLDY    42  29  59 S15       29.93S
6HR MIN TEMP:  41; 6HR MAX TEMP:  49;

HUNTINGTON*    CLEAR     41  27  57 S10G20    29.92S
6HR MIN TEMP:  41; 6HR MAX TEMP:  47;

PERU/GRISSOM   CLEAR     42  28  56 S12       29.91S
6HR MIN TEMP:  41; 6HR MAX TEMP:  50;

MARION*        CLEAR     40  29  63 S18       29.95F
6HR MIN TEMP:  23; 6HR MAX TEMP:  58;


$$
INZ028>050-210100-
CENTRAL INDIANA

CITY           SKY/WX    TMP DP  RH WIND       PRES   REMARKS
LAFAYETTE      CLEAR     43  30  60 S10       29.91S
6HR MIN TEMP:  43; 6HR MAX TEMP:  50;

KOKOMO*        CLEAR     42  27  55 S13       29.93F
6HR MIN TEMP:  42; 6HR MAX TEMP:  50;

MUNCIE*        CLEAR     44  25  47 S15G23    29.97S
6HR MIN TEMP:  44; 6HR MAX TEMP:  49;

INDIANAPOLIS   PTCLDY    44  24  45 S14       29.98F
6HR MIN TEMP:  44; 6HR MAX TEMP:  50;


$$
MIZ043>046-050>051-056>058-064>065-071>073-077>080-210100-
SOUTHWEST LOWER MICHIGAN

CITY           SKY/WX    TMP DP  RH WIND       PRES   REMARKS
BATTLE CREEK   CLEAR     45  29  53 S21       29.80F
6HR MIN TEMP:  45; 6HR MAX TEMP:  49;

BENTON HARBOR  CLEAR     48  30  49 S20       29.77F
6HR MIN TEMP:  48; 6HR MAX TEMP:  52;

COLDWATER*     CLEAR     43  27  52 S10       29.84F
6HR MIN TEMP:  43; 6HR MAX TEMP:  50;

HILLSDALE*     CLEAR     41  28  60 S9G23     29.85S
HOLLAND        CLEAR     47  32  56 S18       29.73F
6HR MIN TEMP:  46; 6HR MAX TEMP:  49;

GRAND RAPIDS   CLOUDY    47  32  56 S18G25    29.73F
6HR MIN TEMP:  45; 6HR MAX TEMP:  48;

KALAMAZOO      CLEAR     45  28  51 S20G29    29.80F
6HR MIN TEMP:  45; 6HR MAX TEMP:  51;

STURGIS*       CLEAR     43  29  59 S16G23    29.83F
THREE RIVERS*  FAIR      45  29  54 S18G24    29.82F
6HR MIN TEMP:  45; 6HR MAX TEMP:  51;


$$
OHZ001>008-015>018-024>025-210100-
NORTHWEST OHIO

CITY           SKY/WX    TMP DP  RH WIND       PRES   REMARKS
WAUSEON*       FAIR      43  30  61 SW20G29   29.89S
DEFIANCE       CLEAR     42  27  55 S18G25    29.92S
6HR MIN TEMP:  42; 6HR MAX TEMP:  47;

FINDLAY        CLEAR     41  26  55 S16       29.95S
6HR MIN TEMP:  41; 6HR MAX TEMP:  46;

TOLEDO EXPRESS CLEAR     43  31  62 S15G24    29.91S
6HR MIN TEMP:  43; 6HR MAX TEMP:  48;

TOLEDO METCALF CLEAR     42  29  59 S16       29.93F
6HR MIN TEMP:  42; 6HR MAX TEMP:  47;

LIMA           CLEAR     41  26  55 S17       29.96S
6HR MIN TEMP:  26; 6HR MAX TEMP:  42;


$$
AND FOR LAKE MICHIGAN COASTAL AND OPEN LAKE BUOY OBSERVATIONS

STATION/POSITION TEMP    WIND        PRES    VSBY  WAVE
                 AIR SEA DIR/SP/G                  HT/PER
                 (F)     (DEG/KT/KT) (MB)    (MI)  (FT/S)
CALUMET HARBOR    47     170/ 16/ 25 1007.5F
MICHIGAN CITY     47     180/ 23/ 27   N/A
BURNS HARBOR      47     190/ 20/ 34 1009.1F
SAINT JOSEPH      49     200/ 14/ 22 1008.8
SOUTH LAKE BUOY   50 49  210/ 27/ 33 1005.3          6/ 6

$$
&&




USA.gov is the U.S. government's official web portal to all federal, state and local government web resources and services.